Weather Service Report


839 
ASUS43 KMKX 272200
RWRWI 

WISCONSIN REGIONAL WEATHER ROUNDUP
NATIONAL WEATHER SERVICE MILWAUKEE/SULLIVAN WI
400 PM CST THU NOV 27 2014

NOTE: "FAIR" INDICATES FEW OR NO CLOUDS BELOW 12,000 FEET WITH NO
SIGNIFICANT WEATHER AND/OR OBSTRUCTIONS TO VISIBILITY.

WIZ001-002-006>008-014>016-023>028-272300-
NORTHWEST WISCONSIN
  
CITY           SKY/WX    TMP DP  RH WIND       PRES   REMARKS
SUPERIOR ARPT  CLEAR     10  -4  51 SW5       30.41F WCI   2          
ASHLAND        CLEAR      8  -1  66 SW5       30.41S WCI   0          
HAYWARD        CLEAR      7  -2  66 SW5       30.37F WCI  -2          
SIREN          CLEAR      9  -5  52 SW5       30.40F WCI   1          
CUMBERLAND     CLEAR      9  -6  52 CALM      30.37F                  
RICE LAKE      CLEAR      9  -6  52 W3        30.42S                  
CHETEK         CLEAR      8  -5  54 CALM      30.41S                  
LADYSMITH      CLEAR     11  -3  53 CALM      30.39S                  
EAU CLAIRE     CLEAR      8  -5  55 W7        30.42S WCI  -3          
MENOMONIE      CLEAR     10  -4  51 W5        30.43F WCI   2          
NEW RICHMOND   CLEAR      9  -5  52 CALM      30.42F                  
OSCEOLA        CLEAR     10  -4  53 CALM      30.45F                  
$$
 
WIZ003>005-009-010-017-018-272300-
NORTH CENTRAL WISCONSIN
  
CITY           SKY/WX    TMP DP  RH WIND       PRES   REMARKS
MANITOWISH WTR MOCLDY     8   1  75 W5        30.30S WCI  -1          
ARBOR VITAE    PTCLDY    11   3  70 N7        30.30S WCI   1          
WOODRUFF       PTCLDY    11   3  70 N7        30.30S WCI   1          
RHINELANDER    CLEAR      8  -1  66 NW7       30.30R WCI  -3          
EAGLE RIVER    CLOUDY    10   2  72 CALM      30.28S                  
LAND O LAKES   CLOUDY    10   4  75 N5        30.29R HAZE    WCI   2  
PHILLIPS       CLEAR     10  -1  60 CALM      30.32S                  
TOMAHAWK       CLEAR     11   2  67 CALM      30.32R                  
MEDFORD        CLEAR     10   0  63 W10       30.33R WCI  -4          
MERRILL        CLEAR     13   1  56 NW5       30.33R WCI   6          
$$
 
WIZ029-030-035-036-043>047-272300-
CENTRAL WISCONSIN
  
CITY           SKY/WX    TMP DP  RH WIND       PRES   REMARKS
WAUSAU         FAIR      11   2  67 W10       30.34R WCI  -3          
MOSINEE        CLEAR     10   3  72 W10       30.36R WCI  -3          
MARSHFIELD     CLEAR      9  -2  61 NW9       30.37R WCI  -4          
STEVENS POINT  CLEAR     11   2  66 W6        30.37R WCI   2          
WAUPACA        CLEAR     18   6  58 W5        30.38R WCI  11          
WAUTOMA        NOT AVBL                                               
WISC RAPIDS    CLEAR     11  -2  56 NW7       30.40R WCI   0          
CAMP DOUGLAS   NOT AVBL                                               
$$
 
WIZ011>013-019>022-031-037>040-048>050-272300-
NORTHEAST WISCONSIN
  
CITY           SKY/WX    TMP DP  RH WIND       PRES   REMARKS
ANTIGO         CLEAR      9   0  67 N5        30.30R WCI   1          
SHAWANO        CLEAR     18   5  56 W5        30.35S WCI  11          
OCONTO         CLEAR     17   3  55 N5        30.35S WCI  10          
STURGEON BAY   PTCLDY    16   3  57 NW8       30.34R WCI   5          
GREEN BAY      CLEAR     15   4  61 MISG      30.36R                  
MANITOWOC      NOT AVBL                                               
APPLETON       PTCLDY    16   3  57 NW8       30.35S WCI   5          
CLINTONVILLE   PTCLDY    18   5  57 NW7       30.36R WCI   8          
OSHKOSH        CLEAR     15   5  64 MISG      30.36R                  
$$
 
WIZ032>034-041-042-053>061-272300-
SOUTHWEST WISCONSIN
  
CITY           SKY/WX    TMP DP  RH WIND       PRES   REMARKS
LA CROSSE      CLEAR     13  -1  54 N7        30.45S WCI   3          
SPARTA         CLEAR     13   1  58 W7        30.44R WCI   2          
VIROQUA        CLEAR     11  -2  56 NW6       30.39R WCI   2          
BOSCOBEL       CLEAR     17  -4  39 N7        30.44R WCI   8          
PRAIRIE DU CHI CLEAR     16  -3  42 W8        30.44S WCI   5          
PLATTEVILLE    CLEAR     17   3  55 CALM      30.39S                  
$$

WIZ056-057-062-063-064-067-068-272300-
SOUTH CENTRAL WISCONSIN
  
CITY           SKY/WX    TMP DP  RH WIND       PRES   REMARKS
REEDSBURG      CLEAR     14   4  64 NW7       30.39R WCI   4          
BARABOO/DELLS  CLEAR     14   4  64 NW7       30.38R WCI   4          
LONE ROCK      NOT AVBL                                               
MINERAL POINT  CLEAR     19   3  49 NW7       30.37R WCI  10          
MADISON        PTCLDY    16   6  65 NW7       30.39R WCI   6          
MIDDLETON      CLEAR     18   7  61 NW7       30.39R WCI   9          
WATERTOWN      FLURRIES  17  10  75 NW6       30.37R WCI   8          
MONROE         MOCLDY    21  12  68 NW7       30.36R WCI  13          
JANESVILLE     PTCLDY    19  10  68 NW12      30.38R WCI   7          
$$
 
WIZ051-052-058>065-066-070>072-272300-
SOUTHEAST WISCONSIN
  
CITY           SKY/WX    TMP DP  RH WIND       PRES   REMARKS
MILWAUKEE      MOCLDY    20   8  60 W9        30.37R WCI   9          
WAUKESHA       FLURRIES  16   9  73 W9        30.37R WCI   4          
MILWAUKEE/TIMM PTCLDY    18   7  62 NW10      30.38R WCI   6          
RACINE         CLOUDY    21  12  68 NW9       30.39R WCI  11          
BURLINGTON     LGT SNOW  17  11  76 NW9       30.37R WCI   6          
KENOSHA        FLURRIES  20  13  74 NW10      30.37R WCI   9          
FOND DU LAC    PTCLDY    15   6  67 NW5       30.37R WCI   8          
SHEBOYGAN      CLEAR     16   6  65 NW9       30.36R WCI   4          
WEST BEND      MOCLDY    18   9  68 NW9       30.35S WCI   6          
JUNEAU         PTCLDY    15   8  73 NW5       30.37S WCI   7          
$$

LSZ147-162-272300-
LAKE SUPERIOR
  
STATION/POSITION TIME  TEMP    WIND        PRES    WAVE
                       AIR SEA DIR/SP/G            HT/PER
                 (UTC) (F)     (DEG/KT/KT) (MB)    (FT/S)
DEVILS ISLAND    2100   12     250/ 10/ 12 1030.9F
PORT WING        2100   10     210/  6/ 10 1030.1F
SAXON HARBOR     2100   14     240/  1/  7 1029.5R
$$
 
LMZ867-665-643>646-272300-
LAKE MICHIGAN
  
STATION/POSITION TIME  TEMP    WIND        PRES    WAVE
                       AIR SEA DIR/SP/G            HT/PER
                 (UTC) (F)     (DEG/KT/KT) (MB)    (FT/S)
CHAMBERS ISLAND  2100   19     290/  7/ 13 1027.4R
N MID LAKE BUOY  2050   20 42  320/ 17/ 23 1026.8R   4/ 5
NORTHPORT PIER   2110   18     300/  8/ 21 1027.1R
SISTER BAY       2013          320/ 18/ 22   N/A
ALGOMA LAKESHORE 2043          310/ 12/ 17   N/A
KEWAUNEE LAKESHO 2100   18     330/  9/ 13 1026.5R
SHEBOYGAN LAKESH 2100   18 34  320/ 13/ 15 1029.2R
PORT WASHINGTON  2100   20     300/  5/ 11 1028.8
MILWAUKEE LAKESH 2100   22     320/  9/ 13   N/A
S MID LAKE BUOY  2050   26 42  330/ 17/ 21 1027.3R   6/ 7
KENOSHA   LAKESH 2100   21     310/ 11/ 14 1027.8R
$$

TC  - TEMPERATURE IN CELSIUS
VSB - VISIBILITY IN STATUTE MILES
WCI - WIND CHILL INDEX
HX  - HEAT INDEX


Return to Home page


Western Regional Climate Center, wrcc@dri.edu